St. James, MN

12:29 PM CST on January 16, 2018 (GMT -0600)
Saint James Municipal

Weather History for KJYG - January, 2014

Change the Weather History Date:

Monday, January 13, 2014

  Actual Average Record
Temperature  
Mean Temperature 32 °F -  
Max Temperature 37 °F 23 °F 58 °F (1987)
Min Temperature 26 °F 5 °F -20 °F (2009)
Degree Days  
Heating Degree Days 34    
Moisture  
Dew Point 26 °F    
Average Humidity 76    
Maximum Humidity 87    
Minimum Humidity 69    
Precipitation  
Precipitation 0.00 in - - ()
Sea Level Pressure  
Sea Level Pressure 29.64 in    
Wind  
Wind Speed 14 mph (WSW)    
Max Wind Speed 22 mph    
Max Gust Speed 30 mph    
Visibility 10 miles    
Events      
Averages and records for this station are not official NWS values.
T = Trace of Precipitation, MM = Missing Value Source: NWS Daily Summary

Daily Weather History Graph

Daily Weather History Graph

Search for Another Location

Airport or City:

Trip Planner

Search our weather history database for the weather conditions in past years. The results will help you decide how hot, cold, wet, or windy it might be!

Date:

Astronomy

Jan. 13, 2014 Rise Set
Actual Time 7:50 AM CST 5:03 PM CST
Civil Twilight 7:18 AM CST 5:35 PM CST
Nautical Twilight 6:42 AM CST 6:11 PM CST
Astronomical Twilight 6:08 AM CST 6:46 PM CST
Moon 3:20 PM CST (1/13) 5:39 AM CST (1/13)
Length of Visible Light 10h 17m
Length of Day
9h 13m
Waxing Gibbous, 95% of the Moon is Illuminated
Jan 13
Waxing Gibbous
Jan 15
Full
Jan 23
Last Quarter
Jan 30
New
Feb 6
First Quarter

Hourly Weather History & Observations

Time (CST) Temp. Windchill Dew Point Humidity Pressure Visibility Wind Dir Wind Speed Gust Speed Precip Events Conditions
12:15 AM 37.4 °F 28.5 °F 30.2 °F 75% 29.54 in 10.0 mi West 15.0 mph - N/A   Clear
12:35 AM 37.4 °F 28.5 °F 30.2 °F 75% 29.54 in 10.0 mi West 15.0 mph - N/A   Clear
12:54 AM 37.4 °F 28.9 °F 30.2 °F 75% 29.54 in 10.0 mi West 13.8 mph - N/A   Clear
1:15 AM 37.4 °F 28.9 °F 30.2 °F 75% 29.55 in 10.0 mi West 13.8 mph - N/A   Clear
1:35 AM 37.4 °F 27.8 °F 30.2 °F 75% 29.55 in 10.0 mi West 17.3 mph 21.9 mph N/A   Clear
1:54 AM 37.4 °F 27.5 °F 30.2 °F 75% 29.56 in 10.0 mi West 18.4 mph - N/A   Clear
2:15 AM 37.4 °F 26.6 °F 30.2 °F 75% 29.56 in 10.0 mi WNW 21.9 mph 28.8 mph N/A   Clear
2:35 AM 35.6 °F 24.2 °F 30.2 °F 81% 29.57 in 10.0 mi WNW 21.9 mph 29.9 mph N/A   Clear
2:55 AM 35.6 °F 24.8 °F 28.4 °F 75% 29.59 in 10.0 mi WNW 19.6 mph - N/A   Clear
3:15 AM 33.8 °F 22.5 °F 28.4 °F 81% 29.60 in 10.0 mi WNW 19.6 mph 26.5 mph N/A   Clear
3:35 AM 33.8 °F 22.8 °F 28.4 °F 81% 29.61 in 10.0 mi WNW 18.4 mph 26.5 mph N/A   Mostly Cloudy
3:55 AM 33.8 °F 21.9 °F 30.2 °F 87% 29.62 in 10.0 mi WNW 21.9 mph 26.5 mph N/A   Overcast
4:14 AM 33.8 °F 23.5 °F 30.2 °F 87% 29.63 in 10.0 mi NW 16.1 mph 26.5 mph N/A   Overcast
4:35 AM 33.8 °F 21.9 °F 26.6 °F 75% 29.64 in 10.0 mi WNW 21.9 mph 29.9 mph N/A   Mostly Cloudy
4:55 AM 30.2 °F 18.9 °F 23.0 °F 75% 29.65 in 10.0 mi WNW 16.1 mph - N/A   Clear
5:15 AM 28.4 °F 17.0 °F 21.2 °F 74% 29.66 in 10.0 mi WNW 15.0 mph 21.9 mph N/A   Clear
5:35 AM 28.4 °F 17.0 °F 21.2 °F 74% 29.66 in 10.0 mi WNW 15.0 mph 20.7 mph N/A   Scattered Clouds
5:55 AM 28.4 °F 16.6 °F 21.2 °F 74% 29.67 in 10.0 mi WNW 16.1 mph - N/A   Scattered Clouds
6:15 AM 28.4 °F 16.6 °F 21.2 °F 74% 29.68 in 10.0 mi WNW 16.1 mph - N/A   Clear
6:34 AM 28.4 °F 17.0 °F 23.0 °F 80% 29.68 in 10.0 mi West 15.0 mph - N/A   Scattered Clouds
6:55 AM 28.4 °F 16.6 °F 23.0 °F 80% 29.68 in 10.0 mi West 16.1 mph 21.9 mph N/A   Clear
7:15 AM 28.4 °F 16.6 °F 21.2 °F 74% 29.69 in 10.0 mi WNW 16.1 mph - N/A   Clear
7:35 AM 26.6 °F 14.7 °F 21.2 °F 80% 29.70 in 10.0 mi West 15.0 mph - N/A   Clear
7:55 AM 26.6 °F 15.2 °F 21.2 °F 80% 29.70 in 10.0 mi West 13.8 mph - N/A   Clear
8:15 AM 26.6 °F 15.7 °F 21.2 °F 80% 29.71 in 10.0 mi West 12.7 mph - N/A   Clear
8:35 AM 26.6 °F 14.7 °F 21.2 °F 80% 29.72 in 10.0 mi West 15.0 mph - N/A   Clear
8:55 AM 26.6 °F 16.2 °F 21.2 °F 80% 29.73 in 10.0 mi West 11.5 mph - N/A   Clear
9:15 AM 28.4 °F 18.5 °F 21.2 °F 74% 29.73 in 10.0 mi West 11.5 mph - N/A   Clear
9:35 AM 28.4 °F 17.5 °F 21.2 °F 74% 29.74 in 10.0 mi WNW 13.8 mph 20.7 mph N/A   Clear
9:55 AM 28.4 °F 18.0 °F 21.2 °F 74% 29.73 in 10.0 mi WNW 12.7 mph 18.4 mph N/A   Clear
10:15 AM 28.4 °F 17.5 °F 21.2 °F 74% 29.74 in 10.0 mi WNW 13.8 mph - N/A   Clear
10:35 AM 30.2 °F 20.2 °F 23.0 °F 75% 29.74 in 10.0 mi West 12.7 mph - N/A   Clear
10:54 AM 30.2 °F 19.8 °F 23.0 °F 75% 29.73 in 10.0 mi West 13.8 mph - N/A   Clear
10:58 AM 30.2 °F 19.8 °F 23.0 °F 75% 29.73 in 10.0 mi West 13.8 mph - N/A   Clear
11:20 AM 30.2 °F 19.8 °F 23.0 °F 75% 29.73 in 10.0 mi West 13.8 mph - N/A   Clear
11:54 AM 32.0 °F 22.5 °F 23.0 °F 69% 29.72 in 10.0 mi West 12.7 mph - N/A   Clear
12:14 PM 32.0 °F 24.2 °F 24.8 °F 75% 29.71 in 10.0 mi West 9.2 mph - N/A   Clear
12:35 PM 32.0 °F 24.8 °F 24.8 °F 75% 29.70 in 10.0 mi WSW 8.1 mph - N/A   Clear
12:55 PM 32.0 °F 23.6 °F 24.8 °F 75% 29.70 in 10.0 mi WSW 10.4 mph - N/A   Clear
1:15 PM 32.0 °F 24.2 °F 24.8 °F 75% 29.69 in 10.0 mi West 9.2 mph - N/A   Clear
1:35 PM 33.8 °F 25.3 °F 24.8 °F 70% 29.69 in 10.0 mi West 11.5 mph - N/A   Clear
1:55 PM 33.8 °F 24.8 °F 24.8 °F 70% 29.68 in 10.0 mi WSW 12.7 mph - N/A   Clear
2:15 PM 33.8 °F 24.8 °F 24.8 °F 70% 29.69 in 10.0 mi West 12.7 mph - N/A   Clear
2:35 PM 33.8 °F 25.8 °F 24.8 °F 70% 29.68 in 10.0 mi SW 10.4 mph - N/A   Clear
2:55 PM 33.8 °F 25.8 °F 24.8 °F 70% 29.69 in 10.0 mi SW 10.4 mph - N/A   Clear
3:15 PM 33.8 °F 27.0 °F 24.8 °F 70% 29.68 in 10.0 mi SW 8.1 mph - N/A   Mostly Cloudy
3:35 PM 33.8 °F 27.7 °F 24.8 °F 70% 29.68 in 10.0 mi SSW 6.9 mph - N/A   Mostly Cloudy
3:55 PM 33.8 °F 27.7 °F 24.8 °F 70% 29.68 in 10.0 mi SW 6.9 mph - N/A   Mostly Cloudy
4:14 PM 33.8 °F 28.6 °F 26.6 °F 75% 29.69 in 10.0 mi WSW 5.8 mph - N/A   Mostly Cloudy
4:35 PM 33.8 °F - 24.8 °F 70% 29.67 in 10.0 mi Calm Calm - N/A   Mostly Cloudy
4:55 PM 33.8 °F 30.8 °F 26.6 °F 75% 29.66 in 10.0 mi SE 3.5 mph - N/A   Overcast
5:15 PM 32.0 °F 28.7 °F 26.6 °F 80% 29.65 in 10.0 mi SE 3.5 mph - N/A   Mostly Cloudy
5:35 PM 33.8 °F - 26.6 °F 75% 29.66 in 10.0 mi Calm Calm - N/A   Mostly Cloudy
5:55 PM 33.8 °F 30.8 °F 26.6 °F 75% 29.66 in 10.0 mi SE 3.5 mph - N/A   Overcast
6:15 PM 32.0 °F 27.5 °F 28.4 °F 87% 29.65 in 10.0 mi SE 4.6 mph - N/A   Overcast
6:35 PM 33.8 °F 28.6 °F 28.4 °F 81% 29.64 in 10.0 mi ESE 5.8 mph - N/A   Overcast
6:54 PM 33.8 °F 27.0 °F 28.4 °F 81% 29.63 in 10.0 mi SE 8.1 mph - N/A   Overcast
7:15 PM 33.8 °F 26.4 °F 28.4 °F 81% 29.61 in 10.0 mi SE 9.2 mph - N/A   Overcast
7:35 PM 33.8 °F 26.4 °F 28.4 °F 81% 29.60 in 10.0 mi SE 9.2 mph - N/A   Overcast
7:55 PM 33.8 °F 27.0 °F 28.4 °F 81% 29.60 in 10.0 mi SSE 8.1 mph - N/A   Overcast
8:15 PM 33.8 °F 27.0 °F 28.4 °F 81% 29.59 in 10.0 mi SSE 8.1 mph - N/A   Overcast
8:35 PM 33.8 °F 26.4 °F 28.4 °F 81% 29.57 in 10.0 mi SSE 9.2 mph - N/A   Overcast
8:55 PM 35.6 °F 28.6 °F 26.6 °F 70% 29.56 in 10.0 mi SSE 9.2 mph - N/A   Scattered Clouds
9:15 PM 33.8 °F 26.4 °F 26.6 °F 75% 29.55 in 10.0 mi South 9.2 mph - N/A   Clear
9:35 PM 33.8 °F 24.3 °F 26.6 °F 75% 29.54 in 10.0 mi South 13.8 mph - N/A   Clear
9:55 PM 33.8 °F 24.8 °F 26.6 °F 75% 29.53 in 10.0 mi South 12.7 mph - N/A   Scattered Clouds
10:15 PM 33.8 °F 24.8 °F 26.6 °F 75% 29.52 in 10.0 mi South 12.7 mph - N/A   Mostly Cloudy
10:34 PM 33.8 °F 24.8 °F 26.6 °F 75% 29.51 in 10.0 mi South 12.7 mph - N/A   Overcast
10:55 PM 33.8 °F 25.3 °F 26.6 °F 75% 29.51 in 10.0 mi South 11.5 mph - N/A   Overcast
11:15 PM 33.8 °F 24.8 °F 26.6 °F 75% 29.50 in 10.0 mi South 12.7 mph - N/A   Overcast
11:35 PM 33.8 °F 26.4 °F 26.6 °F 75% 29.49 in 10.0 mi South 9.2 mph - N/A   Overcast
11:55 PM 33.8 °F 26.4 °F 26.6 °F 75% 29.49 in 10.0 mi SSW 9.2 mph - N/A   Scattered Clouds